Regional Weather Roundup
Issued by NWS

Home | Current Version | Previous Version | Text Only | Print | Product List | Glossary On
Versions: 1 2 3 4 5 6 7 8 9 10 11 12 13 14 15 16 17 18 19 20 21 22 23 24 25 26 27 28 29 30 31 32 33 34 35 36 37 38 39 40 41 42 43 44 45 46 47 48 49 50
000
ASUS46 KPQR 192310
RWROR

OREGON REGIONAL WEATHER ROUNDUP
NATIONAL WEATHER SERVICE PORTLAND OR
400 PM PDT SUN APR 19 2015

NOTE: "FAIR" INDICATES FEW OR NO CLOUDS BELOW 12,000 FEET WITH
NO SIGNIFICANT WEATHER AND/OR OBSTRUCTIONS TO VISIBILITY.

ORZ001>013-200000-
NORTHWEST OREGON


CITY           SKY/WX    TMP DP  RH WIND       PRES   REMARKS
ASTORIA        SUNNY     62  49  62 NW17      30.05F
NEWPORT        SUNNY     57  50  77 N18G24    30.05F
PORTLAND       MOSUNNY   76  44  32 W8        29.99F
VANCOUVER WA   SUNNY     76  42  29 NW7       29.98F
SCAPPOOSE      SUNNY     76  37  24 N12       29.98F
HILLSBORO      SUNNY     76  43  30 CALM      29.99F
AURORA         SUNNY     75  44  33 NW6       29.99F
MCMINNVILLE    SUNNY     78  41  26 N9        29.99F
SALEM          SUNNY     75  47  36 N9        29.98F
CORVALLIS      SUNNY     79  46  31 NE9       30.00F
EUGENE         PTSUNNY   73  50  44 N12       29.99F
$$

ORZ021-028-200000-
SOUTHWEST OREGON


CITY           SKY/WX    TMP DP  RH WIND       PRES   REMARKS
NORTH BEND     SUNNY     61  50  67 N20G26    29.98F
BROOKINGS      SUNNY     68  50  52 S10       29.90S
ROSEBURG       SUNNY     79  43  27 N7        29.95F
SEXTON SUMMIT  SUNNY     71  33  24 CALM      30.03F
MEDFORD        SUNNY     84  29  13 VRB6      29.91F
$$

ORZ014>016-041-200000-
COLUMBIA GORGE


CITY           SKY/WX    TMP DP  RH WIND       PRES   REMARKS
TROUTDALE      SUNNY     76  43  30 W3        29.98F
THE DALLES     SUNNY     79  28  15 NE8       29.99F
$$

ORZ029>031-041-044-049-050-061>064-502-503-505>511-200000-
EASTERN OREGON


CITY           SKY/WX    TMP DP  RH WIND       PRES   REMARKS
REDMOND        SUNNY     72  24  16 VRB7      30.03F
BEND             N/A    N/A N/A N/A MISG        N/A
PRINEVILLE     SUNNY     70  23  17 VRB7G14   30.03F
KLAMATH FALLS  SUNNY     71  19  14 SW5       30.03F
LAKEVIEW       MOSUNNY   73  18  12 W7        30.05F
HERMISTON      SUNNY     77  22  13 NE7       30.02F
PENDLETON      SUNNY     73  36  25 VRB5      30.03F
JOHN DAY       SUNNY     68  29  22 W7        30.05F
MEACHAM        SUNNY     62  27  26 VRB6      30.09F
LA GRANDE      SUNNY     68  28  22 NE6       30.03F
BAKER CITY     SUNNY     68  24  19 NW8       30.04F
BURNS          SUNNY     66  19  16 S8        30.05F
ROME             N/A     69  12  11 VRB3      30.02F
ONTARIO        SUNNY     73  25  16 CALM      30.01F
$$



USA.gov is the U.S. government's official web portal to all federal, state and local government web resources and services.